QFA172 YBTL-YBCS

Flight info

Callsign QFA172
Flight time 1h 3m
Altitude 20000
Route PEWEE V308 BARIA Q67 UPOLO
Aircraft A321/M-SDE3FGHIRWY/LB1

Departure

Time 2026-04-22 14:30
Airport Townsville Airport / RAAF Base Townsville (YBTL)

Arrival

Time 2026-04-22 15:34
Airport Cairns International Airport (YBCS)
Time Latitude Longitude Altitude Speed Heading
2026-04-22 14:21 -19.25607 146.76982 23 ft 0 kts 105°
2026-04-22 14:22 -19.25605 146.76974 23 ft 4 kts 104°
2026-04-22 14:22 -19.25596 146.76931 23 ft 2 kts 78°
2026-04-22 14:23 -19.25600 146.76920 25 ft 2 kts 25°
2026-04-22 14:23 -19.25611 146.76916 27 ft 2 kts 18°
2026-04-22 14:23 -19.25618 146.76914 23 ft 0 kts 13°
2026-04-22 14:25 -19.25616 146.76914 22 ft 1 kts 13°
2026-04-22 14:25 -19.25593 146.76920 22 ft 5 kts 13°
2026-04-22 14:25 -19.25543 146.76933 24 ft 9 kts 17°
2026-04-22 14:25 -19.25467 146.76951 22 ft 13 kts 356°
2026-04-22 14:26 -19.25388 146.76889 22 ft 16 kts 336°
2026-04-22 14:26 -19.25277 146.76925 22 ft 19 kts 28°
2026-04-22 14:26 -19.25150 146.76993 22 ft 22 kts 27°
2026-04-22 14:26 -19.25047 146.77051 22 ft 16 kts 27°
2026-04-22 14:27 -19.24939 146.77110 24 ft 19 kts 28°
2026-04-22 14:27 -19.24811 146.77181 22 ft 22 kts 28°
2026-04-22 14:27 -19.24664 146.77263 23 ft 26 kts 27°
2026-04-22 14:27 -19.24504 146.77352 22 ft 19 kts 27°
2026-04-22 14:28 -19.24387 146.77411 22 ft 20 kts 24°
2026-04-22 14:28 -19.24247 146.77477 22 ft 24 kts 24°
2026-04-22 14:28 -19.24091 146.77551 22 ft 22 kts 24°
2026-04-22 14:28 -19.24015 146.77586 22 ft 11 kts 22°
2026-04-22 14:29 -19.23928 146.77585 22 ft 15 kts 338°
2026-04-22 14:29 -19.23860 146.77501 23 ft 14 kts 295°
2026-04-22 14:29 -19.23875 146.77401 25 ft 17 kts 219°
2026-04-22 14:29 -19.23936 146.77368 22 ft 2 kts 204°
2026-04-22 14:30 -19.23959 146.77357 22 ft 7 kts 204°
2026-04-22 14:30 -19.24260 146.77214 22 ft 107 kts 204°
2026-04-22 14:30 -19.25249 146.76752 294 ft 184 kts 203°
2026-04-22 14:30 -19.26464 146.76208 1540 ft 190 kts 204°
2026-04-22 14:31 -19.27736 146.75609 2752 ft 214 kts 205°
2026-04-22 14:31 -19.29167 146.74926 3738 ft 235 kts 205°
2026-04-22 14:31 -19.30674 146.74183 4762 ft 242 kts 210°
2026-04-22 14:31 -19.31835 146.72900 5791 ft 249 kts 246°
2026-04-22 14:32 -19.32042 146.71098 6853 ft 253 kts 282°
2026-04-22 14:32 -19.31310 146.69408 7975 ft 256 kts 303°
2026-04-22 14:32 -19.30235 146.67896 9073 ft 259 kts 309°
2026-04-22 14:32 -19.29092 146.66403 10135 ft 263 kts 308°
2026-04-22 14:33 -19.27970 146.64854 11170 ft 267 kts 306°
2026-04-22 14:33 -19.26889 146.63239 12183 ft 271 kts 305°
2026-04-22 14:33 -19.25537 146.61830 13120 ft 277 kts 328°
2026-04-22 14:33 -19.23728 146.61108 14029 ft 285 kts 351°
2026-04-22 14:34 -19.21680 146.61254 14469 ft 310 kts 18°
2026-04-22 14:34 -19.19633 146.62223 14859 ft 334 kts 26°
2026-04-22 14:34 -19.17472 146.63348 15260 ft 356 kts 26°
2026-04-22 14:34 -19.15340 146.64733 15972 ft 365 kts 38°
2026-04-22 14:35 -19.13547 146.66663 16806 ft 371 kts 52°
2026-04-22 14:35 -19.12183 146.68999 17639 ft 376 kts 61°
2026-04-22 14:35 -19.10913 146.71433 18473 ft 380 kts 60°
2026-04-22 14:35 -19.09404 146.73753 19267 ft 385 kts 50°
2026-04-22 14:36 -19.07504 146.75767 19795 ft 389 kts 39°
2026-04-22 14:36 -19.05268 146.77369 19965 ft 389 kts 27°
2026-04-22 14:36 -19.02736 146.78411 20003 ft 394 kts 14°
2026-04-22 14:36 -19.00026 146.78794 20009 ft 394 kts
2026-04-22 14:37 -19.25607 146.76982 22 ft 0 kts 105°
2026-04-22 14:48 -19.25607 146.76980 23 ft 1 kts 105°
2026-04-22 14:49 -19.25603 146.76966 27 ft 2 kts 105°
2026-04-22 14:49 -19.25599 146.76949 24 ft 3 kts 102°
2026-04-22 14:49 -19.25597 146.76933 23 ft 2 kts 84°
2026-04-22 14:49 -19.25599 146.76922 27 ft 2 kts 35°
2026-04-22 14:50 -19.25609 146.76917 25 ft 2 kts 18°
2026-04-22 14:50 -19.25613 146.76915 23 ft 2 kts 17°
2026-04-22 14:50 -19.25612 146.76915 26 ft 2 kts 15°
2026-04-22 14:50 -19.25582 146.76924 25 ft 6 kts 16°
2026-04-22 14:51 -19.25526 146.76941 22 ft 10 kts 15°
2026-04-22 14:51 -19.25446 146.76944 22 ft 13 kts 334°
2026-04-22 14:51 -19.25360 146.76890 22 ft 16 kts
2026-04-22 14:51 -19.25246 146.76944 22 ft 20 kts 28°
2026-04-22 14:52 -19.25114 146.77016 22 ft 23 kts 27°
2026-04-22 14:52 -19.24964 146.77099 22 ft 26 kts 26°
2026-04-22 14:52 -19.24795 146.77191 22 ft 29 kts 28°
2026-04-22 14:52 -19.24613 146.77294 22 ft 31 kts 27°
2026-04-22 14:53 -19.24415 146.77400 22 ft 33 kts 26°
2026-04-22 14:53 -19.24202 146.77505 23 ft 35 kts 21°
2026-04-22 14:53 -19.24040 146.77580 22 ft 14 kts 23°
2026-04-22 14:53 -19.23940 146.77590 22 ft 16 kts 345°
2026-04-22 14:54 -19.23859 146.77499 23 ft 19 kts 297°
2026-04-22 14:54 -19.23892 146.77389 24 ft 19 kts 213°
2026-04-22 14:54 -19.23929 146.77370 22 ft 0 kts 204°
2026-04-22 14:55 -19.23932 146.77369 22 ft 0 kts 204°
2026-04-22 14:55 -19.23933 146.77368 22 ft 1 kts 204°
2026-04-22 14:55 -19.24060 146.77309 23 ft 69 kts 204°
2026-04-22 14:55 -19.24857 146.76931 85 ft 170 kts 204°
2026-04-22 14:56 -19.26025 146.76406 1012 ft 194 kts 204°
2026-04-22 14:56 -19.27254 146.75833 2358 ft 193 kts 205°
2026-04-22 14:56 -19.28481 146.75248 3092 ft 199 kts 205°
2026-04-22 14:56 -19.29816 146.74610 3537 ft 222 kts 205°
2026-04-22 14:57 -19.31218 146.73761 4055 ft 241 kts 224°
2026-04-22 14:57 -19.31968 146.72174 4958 ft 248 kts 264°
2026-04-22 14:57 -19.31656 146.70397 6100 ft 250 kts 295°
2026-04-22 14:57 -19.30749 146.68825 7258 ft 252 kts 306°
2026-04-22 14:58 -19.29679 146.67335 8370 ft 256 kts 308°
2026-04-22 14:58 -19.28592 146.65825 9434 ft 260 kts 306°
2026-04-22 14:58 -19.27530 146.64255 10480 ft 265 kts 304°
2026-04-22 14:58 -19.26467 146.62648 11450 ft 269 kts 310°
2026-04-22 14:59 -19.24973 146.61449 12173 ft 275 kts 336°
2026-04-22 14:59 -19.23086 146.61010 12967 ft 289 kts 360°
2026-04-22 14:59 -19.21063 146.61513 13398 ft 314 kts 24°
2026-04-22 14:59 -19.19018 146.62559 13803 ft 339 kts 26°
2026-04-22 15:00 -19.16854 146.63701 14389 ft 354 kts 27°
2026-04-22 15:00 -19.14819 146.65192 15251 ft 355 kts 41°
2026-04-22 15:00 -19.13182 146.67128 15558 ft 359 kts 56°
2026-04-22 15:00 -19.11952 146.69461 16318 ft 367 kts 62°
2026-04-22 15:01 -19.10726 146.71849 17175 ft 372 kts 60°
2026-04-22 15:01 -19.09208 146.74076 17985 ft 377 kts 48°
2026-04-22 15:01 -19.07277 146.75967 18799 ft 381 kts 37°
2026-04-22 15:01 -19.05010 146.77446 19567 ft 386 kts 25°
2026-04-22 15:02 -19.02486 146.78418 19889 ft 387 kts 13°
2026-04-22 15:02 -18.99815 146.78768 19991 ft 389 kts 360°
2026-04-22 15:02 -18.97128 146.78429 20010 ft 390 kts 345°
2026-04-22 15:02 -18.94509 146.77671 20010 ft 391 kts 344°
2026-04-22 15:03 -18.91877 146.76933 20010 ft 391 kts 345°
2026-04-22 15:03 -18.89241 146.76219 20009 ft 391 kts 345°
2026-04-22 15:03 -18.86605 146.75515 20011 ft 391 kts 345°
2026-04-22 15:03 -18.83963 146.74809 20012 ft 391 kts 345°
2026-04-22 15:04 -18.81326 146.74100 20012 ft 391 kts 345°
2026-04-22 15:04 -18.78692 146.73384 20009 ft 391 kts 345°
2026-04-22 15:04 -18.76054 146.72662 20007 ft 391 kts 345°
2026-04-22 15:04 -18.73423 146.71942 20010 ft 391 kts 345°
2026-04-22 15:05 -18.70781 146.71222 20017 ft 391 kts 345°
2026-04-22 15:05 -18.68149 146.70503 20018 ft 391 kts 345°
2026-04-22 15:05 -18.65511 146.69783 20017 ft 391 kts 345°
2026-04-22 15:05 -18.62875 146.69065 20015 ft 391 kts 345°
2026-04-22 15:06 -18.60240 146.68347 20020 ft 391 kts 345°
2026-04-22 15:06 -18.57603 146.67628 20023 ft 392 kts 345°
2026-04-22 15:06 -18.54963 146.66907 20024 ft 392 kts 345°
2026-04-22 15:06 -18.52325 146.66186 20032 ft 392 kts 345°
2026-04-22 15:07 -18.49684 146.65466 20030 ft 392 kts 345°
2026-04-22 15:07 -18.47050 146.64748 20025 ft 392 kts 345°
2026-04-22 15:07 -18.44410 146.64029 20023 ft 392 kts 345°
2026-04-22 15:07 -18.41773 146.63314 20030 ft 391 kts 345°
2026-04-22 15:08 -18.39135 146.62598 20024 ft 391 kts 345°
2026-04-22 15:08 -18.36496 146.61881 20023 ft 391 kts 345°
2026-04-22 15:08 -18.33857 146.61164 20024 ft 391 kts 345°
2026-04-22 15:08 -18.31221 146.60447 20025 ft 391 kts 345°
2026-04-22 15:09 -18.28585 146.59729 20025 ft 391 kts 345°
2026-04-22 15:09 -18.25949 146.59013 20029 ft 391 kts 345°
2026-04-22 15:09 -18.23312 146.58300 20031 ft 391 kts 345°
2026-04-22 15:09 -18.20674 146.57585 20030 ft 392 kts 345°
2026-04-22 15:10 -18.18068 146.56878 20030 ft 392 kts 345°
2026-04-22 15:10 -18.15430 146.56163 20023 ft 392 kts 345°
2026-04-22 15:10 -18.12790 146.55450 20024 ft 392 kts 345°
2026-04-22 15:10 -18.10152 146.54734 20023 ft 391 kts 345°
2026-04-22 15:11 -18.07515 146.54016 20024 ft 391 kts 345°
2026-04-22 15:11 -18.04878 146.53303 20023 ft 391 kts 345°
2026-04-22 15:11 -18.02243 146.52590 20025 ft 391 kts 345°
2026-04-22 15:11 -17.99604 146.51875 20023 ft 392 kts 345°
2026-04-22 15:12 -17.96968 146.51162 20024 ft 392 kts 345°
2026-04-22 15:12 -17.94330 146.50448 20031 ft 392 kts 345°
2026-04-22 15:12 -17.91679 146.49771 20031 ft 392 kts 347°
2026-04-22 15:12 -17.89009 146.49199 20029 ft 392 kts 349°
2026-04-22 15:13 -17.86327 146.48695 20030 ft 392 kts 350°
2026-04-22 15:13 -17.83638 146.48221 20030 ft 392 kts 350°
2026-04-22 15:13 -17.80948 146.47748 20032 ft 392 kts 350°
2026-04-22 15:13 -17.78262 146.47263 20024 ft 392 kts 349°
2026-04-22 15:14 -17.75581 146.46763 20030 ft 392 kts 349°
2026-04-22 15:14 -17.72899 146.46249 20029 ft 392 kts 349°
2026-04-22 15:14 -17.70183 146.45722 20030 ft 392 kts 349°
2026-04-22 15:14 -17.67537 146.45207 20022 ft 392 kts 349°
2026-04-22 15:15 -17.64861 146.44685 20032 ft 392 kts 349°
2026-04-22 15:15 -17.62183 146.44165 20032 ft 391 kts 349°
2026-04-22 15:15 -17.59502 146.43648 20022 ft 391 kts 349°
2026-04-22 15:15 -17.56826 146.43134 20025 ft 391 kts 349°
2026-04-22 15:16 -17.54154 146.42622 20023 ft 391 kts 349°
2026-04-22 15:16 -17.51476 146.42111 20022 ft 391 kts 349°
2026-04-22 15:16 -17.48800 146.41600 20021 ft 391 kts 349°
2026-04-22 15:16 -17.46121 146.41088 20022 ft 391 kts 349°
2026-04-22 15:17 -17.43447 146.40575 20021 ft 391 kts 349°
2026-04-22 15:17 -17.40765 146.40058 20027 ft 392 kts 349°
2026-04-22 15:17 -17.38086 146.39541 20031 ft 392 kts 349°
2026-04-22 15:17 -17.35404 146.39026 20027 ft 392 kts 349°
2026-04-22 15:18 -17.32724 146.38513 20030 ft 392 kts 349°
2026-04-22 15:18 -17.30044 146.37999 20031 ft 391 kts 349°
2026-04-22 15:18 -17.27367 146.37487 20030 ft 392 kts 349°
2026-04-22 15:18 -17.24688 146.36970 20030 ft 391 kts 348°
2026-04-22 15:19 -17.22076 146.36175 20028 ft 391 kts 338°
2026-04-22 15:19 -17.19650 146.34895 20032 ft 391 kts 327°
2026-04-22 15:19 -17.17456 146.33218 20034 ft 390 kts 322°
2026-04-22 15:19 -17.15311 146.31479 20029 ft 391 kts 322°
2026-04-22 15:20 -17.13891 146.30329 20028 ft 391 kts 322°
2026-04-22 15:20 -17.11006 146.28004 20028 ft 391 kts 322°
2026-04-22 15:20 -17.08853 146.26276 20008 ft 390 kts 322°
2026-04-22 15:20 -17.06714 146.24562 19758 ft 385 kts 322°
2026-04-22 15:21 -17.04597 146.22864 19523 ft 383 kts 322°
2026-04-22 15:21 -17.02494 146.21175 19178 ft 378 kts 322°
2026-04-22 15:21 -17.00422 146.19509 18633 ft 374 kts 322°
2026-04-22 15:21 -16.98376 146.17860 18056 ft 370 kts 322°
2026-04-22 15:22 -16.96350 146.16226 17485 ft 366 kts 322°
2026-04-22 15:22 -16.94345 146.14610 16901 ft 363 kts 322°
2026-04-22 15:22 -16.92381 146.13033 16327 ft 359 kts 322°
2026-04-22 15:22 -16.90377 146.11432 15740 ft 356 kts 322°
2026-04-22 15:23 -16.88446 146.09888 15168 ft 353 kts 322°
2026-04-22 15:23 -16.86511 146.08338 14597 ft 349 kts 322°
2026-04-22 15:23 -16.84599 146.06803 14025 ft 345 kts 322°
2026-04-22 15:23 -16.82702 146.05282 13450 ft 342 kts 322°
2026-04-22 15:24 -16.80825 146.03776 12889 ft 339 kts 322°
2026-04-22 15:24 -16.78963 146.02283 12324 ft 336 kts 322°
2026-04-22 15:24 -16.77119 146.00805 11765 ft 333 kts 322°
2026-04-22 15:24 -16.75292 145.99339 11210 ft 330 kts 322°
2026-04-22 15:25 -16.73483 145.97887 10654 ft 327 kts 322°
2026-04-22 15:25 -16.71709 145.96464 10425 ft 314 kts 322°
2026-04-22 15:25 -16.70027 145.95091 10294 ft 300 kts 319°
2026-04-22 15:25 -16.68599 145.93561 10035 ft 291 kts 311°
2026-04-22 15:26 -16.67259 145.92005 9837 ft 286 kts 311°
2026-04-22 15:26 -16.65923 145.90458 9711 ft 286 kts 311°
2026-04-22 15:26 -16.64587 145.88912 9348 ft 289 kts 311°
2026-04-22 15:26 -16.63372 145.87249 8958 ft 287 kts 300°
2026-04-22 15:27 -16.62587 145.85354 8541 ft 284 kts 287°
2026-04-22 15:27 -16.61990 145.83390 8118 ft 284 kts 287°
2026-04-22 15:27 -16.61390 145.81439 7714 ft 282 kts 288°
2026-04-22 15:27 -16.60792 145.79500 7304 ft 280 kts 287°
2026-04-22 15:28 -16.60469 145.77511 6898 ft 278 kts 271°
2026-04-22 15:28 -16.60690 145.75520 6494 ft 276 kts 255°
2026-04-22 15:28 -16.61221 145.73580 5853 ft 283 kts 253°
2026-04-22 15:28 -16.62029 145.71682 5091 ft 293 kts 236°
2026-04-22 15:29 -16.63380 145.70097 4657 ft 289 kts 226°
2026-04-22 15:29 -16.64747 145.68621 4495 ft 276 kts 226°
2026-04-22 15:29 -16.66042 145.67213 4365 ft 263 kts 225°
2026-04-22 15:30 -16.68676 145.66175 4038 ft 249 kts 172°
2026-04-22 15:30 -16.70884 145.66888 3529 ft 249 kts 156°
2026-04-22 15:30 -16.72419 145.67636 3186 ft 240 kts 154°
2026-04-22 15:30 -16.73895 145.68395 2822 ft 233 kts 154°
2026-04-22 15:31 -16.74849 145.68881 2591 ft 229 kts 154°
2026-04-22 15:31 -16.76264 145.69583 2269 ft 221 kts 155°
2026-04-22 15:31 -16.77633 145.70243 1959 ft 209 kts 155°
2026-04-22 15:31 -16.78899 145.70842 1688 ft 190 kts 156°
2026-04-22 15:32 -16.80069 145.71386 1427 ft 180 kts 156°
2026-04-22 15:32 -16.81177 145.71895 1168 ft 169 kts 156°
2026-04-22 15:32 -16.82239 145.72381 942 ft 165 kts 157°
2026-04-22 15:32 -16.83285 145.72857 690 ft 163 kts 157°
2026-04-22 15:33 -16.84323 145.73327 493 ft 162 kts 157°
2026-04-22 15:33 -16.85296 145.73886 403 ft 158 kts 147°
2026-04-22 15:33 -16.86265 145.74357 236 ft 152 kts 166°
2026-04-22 15:33 -16.87300 145.74676 35 ft 149 kts 156°
2026-04-22 15:34 -16.88086 145.74942 18 ft 71 kts 160°
2026-04-22 15:34 -16.88352 145.75046 17 ft 34 kts 159°
2026-04-22 15:34 -16.88602 145.75126 17 ft 32 kts 172°
2026-04-22 15:34 -16.88656 145.75133 17 ft 0 kts 173°